Location: Clair
(33.8067°N, 117.9845°W)
Time: 17:00:05
(UTC+00:00)

Cosmos 1980 Rocket - Pass Details

Date: 14 February 2026
Orbit: 828 x 848 km, 71.0° (Epoch: 8 March)

Event Time Altitude Azimuth Distance (km) Brightness Sun altitude
Exits shadow 12:45:27 59° 265° (W) 953 2.1 -23.8°
Maximum altitude 12:45:58 62° 293° (WNW) 929 2.1 -23.7°
Drops below altitude 10° 12:51:30 10° 13° (NNE) 2,437 4.7 -22.5°
Sets 12:53:58 0° 17° (NNE) 3,375 5.5 -22.0°
